Time,TemperatureF,DewpointF,PressureIn,WindDirection,WindDirectionDegrees,WindSpeedMPH,WindSpeedGustMPH,Humidity,HourlyPrecipIn,Conditions,Clouds,dailyrainin,SoftwareType,DateUTC
2013-05-13 00:02:00,35.0,19.0,30.08,North,-999,-999.0,-999.0,51,-99.99,,,-99.99,,2013-05-13 05:02:00,
2013-05-13 00:12:00,35.0,19.0,30.08,North,-999,-999.0,-999.0,51,-99.99,,,-99.99,,2013-05-13 05:12:00,
2013-05-13 00:21:00,35.0,19.0,30.08,North,-999,-999.0,-999.0,51,-99.99,,,-99.99,,2013-05-13 05:21:00,
2013-05-13 00:32:00,35.0,20.0,30.08,North,-999,-999.0,-999.0,53,-99.99,,,-99.99,,2013-05-13 05:32:00,
2013-05-13 00:42:00,35.0,20.0,30.08,North,-999,-999.0,-999.0,53,-99.99,,,-99.99,,2013-05-13 05:42:00,
2013-05-13 00:52:00,34.0,19.0,30.08,North,-999,-999.0,-999.0,53,-99.99,,,-99.99,,2013-05-13 05:52:00,
2013-05-13 01:01:00,34.0,19.0,30.08,North,-999,-999.0,-999.0,53,-99.99,,,-99.99,,2013-05-13 06:01:00,
2013-05-13 01:11:00,34.0,19.0,30.08,North,-999,-999.0,-999.0,53,-99.99,,,-99.99,,2013-05-13 06:11:00,
2013-05-13 01:21:00,34.0,19.0,30.08,North,-999,-999.0,-999.0,53,-99.99,,,-99.99,,2013-05-13 06:21:00,
2013-05-13 01:31:00,33.0,19.0,30.08,North,-999,-999.0,-999.0,55,-99.99,,,-99.99,,2013-05-13 06:31:00,
2013-05-13 01:42:00,33.0,19.0,30.08,North,-999,-999.0,-999.0,55,-99.99,,,-99.99,,2013-05-13 06:42:00,
2013-05-13 01:52:00,33.0,19.0,30.08,North,-999,-999.0,-999.0,55,-99.99,,,-99.99,,2013-05-13 06:52:00,
2013-05-13 02:01:00,33.0,19.0,30.08,North,-999,-999.0,-999.0,55,-99.99,,,-99.99,,2013-05-13 07:01:00,
2013-05-13 02:11:00,33.0,19.0,30.08,North,-999,-999.0,-999.0,55,-99.99,,,-99.99,,2013-05-13 07:11:00,
2013-05-13 02:22:00,33.0,19.0,30.08,North,-999,-999.0,-999.0,57,-99.99,,,-99.99,,2013-05-13 07:22:00,
2013-05-13 02:31:00,33.0,19.0,30.08,North,-999,-999.0,-999.0,57,-99.99,,,-99.99,,2013-05-13 07:31:00,
2013-05-13 02:41:00,33.0,19.0,30.08,North,-999,-999.0,-999.0,57,-99.99,,,-99.99,,2013-05-13 07:41:00,
2013-05-13 02:52:00,32.0,19.0,30.08,North,-999,-999.0,-999.0,58,-99.99,,,-99.99,,2013-05-13 07:52:00,
2013-05-13 03:02:00,32.0,20.0,30.08,North,-999,-999.0,-999.0,60,-99.99,,,-99.99,,2013-05-13 08:02:00,
2013-05-13 03:11:00,32.0,20.0,30.08,North,-999,-999.0,-999.0,60,-99.99,,,-99.99,,2013-05-13 08:11:00,
2013-05-13 03:21:00,31.0,20.0,30.08,North,-999,-999.0,-999.0,62,-99.99,,,-99.99,,2013-05-13 08:21:00,
2013-05-13 03:31:00,31.0,20.0,30.08,North,-999,-999.0,-999.0,63,-99.99,,,-99.99,,2013-05-13 08:31:00,
2013-05-13 03:42:00,31.0,20.0,30.08,North,-999,-999.0,-999.0,63,-99.99,,,-99.99,,2013-05-13 08:42:00,
2013-05-13 03:52:00,31.0,20.0,30.08,North,-999,-999.0,-999.0,64,-99.99,,,-99.99,,2013-05-13 08:52:00,
2013-05-13 04:01:00,30.0,20.0,30.08,North,-999,-999.0,-999.0,65,-99.99,,,-99.99,,2013-05-13 09:01:00,
2013-05-13 04:11:00,30.0,20.0,30.08,North,-999,-999.0,-999.0,65,-99.99,,,-99.99,,2013-05-13 09:11:00,
2013-05-13 04:21:00,30.0,20.0,30.08,North,-999,-999.0,-999.0,67,-99.99,,,-99.99,,2013-05-13 09:21:00,
2013-05-13 04:33:00,30.0,21.0,30.08,North,-999,-999.0,-999.0,68,-99.99,,,-99.99,,2013-05-13 09:33:00,
2013-05-13 04:42:00,30.0,21.0,30.08,North,-999,-999.0,-999.0,68,-99.99,,,-99.99,,2013-05-13 09:42:00,
2013-05-13 04:52:00,29.0,20.0,30.08,North,-999,-999.0,-999.0,68,-99.99,,,-99.99,,2013-05-13 09:52:00,
2013-05-13 05:03:00,29.0,20.0,30.08,North,-999,-999.0,-999.0,68,-99.99,,,-99.99,,2013-05-13 10:03:00,
2013-05-13 05:12:00,29.0,20.0,30.08,North,-999,-999.0,-999.0,68,-99.99,,,-99.99,,2013-05-13 10:12:00,
2013-05-13 05:22:00,29.0,20.0,30.08,North,-999,-999.0,-999.0,69,-99.99,,,-99.99,,2013-05-13 10:22:00,
2013-05-13 05:32:00,29.0,20.0,30.08,North,-999,-999.0,-999.0,69,-99.99,,,-99.99,,2013-05-13 10:32:00,
2013-05-13 05:42:00,29.0,20.0,30.08,North,-999,-999.0,-999.0,69,-99.99,,,-99.99,,2013-05-13 10:42:00,
2013-05-13 05:52:00,29.0,20.0,30.08,North,-999,-999.0,-999.0,69,-99.99,,,-99.99,,2013-05-13 10:52:00,
2013-05-13 06:02:00,29.0,20.0,30.11,North,-999,-999.0,-999.0,68,-99.99,,,-99.99,,2013-05-13 11:02:00,
2013-05-13 06:12:00,29.0,20.0,30.11,North,-999,-999.0,-999.0,68,-99.99,,,-99.99,,2013-05-13 11:12:00,
2013-05-13 06:21:00,29.0,20.0,30.11,North,-999,-999.0,-999.0,68,-99.99,,,-99.99,,2013-05-13 11:21:00,
2013-05-13 06:32:00,30.0,21.0,30.11,North,-999,-999.0,-999.0,69,-99.99,,,-99.99,,2013-05-13 11:32:00,
2013-05-13 06:42:00,30.0,21.0,30.11,North,-999,-999.0,-999.0,69,-99.99,,,-99.99,,2013-05-13 11:42:00,
2013-05-13 06:52:00,41.0,27.0,30.08,North,-999,-999.0,-999.0,56,-99.99,,,-99.99,,2013-05-13 11:52:00,
2013-05-13 07:01:00,40.0,26.0,30.11,North,-999,-999.0,-999.0,56,-99.99,,,-99.99,,2013-05-13 12:01:00,
2013-05-13 07:11:00,40.0,26.0,30.11,North,-999,-999.0,-999.0,56,-99.99,,,-99.99,,2013-05-13 12:11:00,
2013-05-13 07:21:00,59.0,34.0,30.11,North,-999,-999.0,-999.0,39,-99.99,,,-99.99,,2013-05-13 12:21:00,
2013-05-13 07:52:00,66.0,36.0,30.11,North,-999,-999.0,-999.0,33,-99.99,,,-99.99,,2013-05-13 12:52:00,
2013-05-13 08:01:00,70.0,39.0,30.11,North,-999,-999.0,-999.0,32,-99.99,,,-99.99,,2013-05-13 13:01:00,
2013-05-13 08:11:00,70.0,39.0,30.11,North,-999,-999.0,-999.0,32,-99.99,,,-99.99,,2013-05-13 13:11:00,
2013-05-13 08:21:00,69.0,38.0,30.11,North,-999,-999.0,-999.0,32,-99.99,,,-99.99,,2013-05-13 13:21:00,
2013-05-13 08:31:00,72.0,38.0,30.11,North,-999,-999.0,-999.0,29,-99.99,,,-99.99,,2013-05-13 13:31:00,
2013-05-13 08:41:00,72.0,38.0,30.11,North,-999,-999.0,-999.0,29,-99.99,,,-99.99,,2013-05-13 13:41:00,
2013-05-13 08:52:00,67.0,34.0,30.11,North,-999,-999.0,-999.0,29,-99.99,,,-99.99,,2013-05-13 13:52:00,
2013-05-13 09:02:00,62.0,31.0,30.11,North,-999,-999.0,-999.0,31,-99.99,,,-99.99,,2013-05-13 14:02:00,
2013-05-13 09:11:00,62.0,31.0,30.11,North,-999,-999.0,-999.0,31,-99.99,,,-99.99,,2013-05-13 14:11:00,
2013-05-13 09:22:00,62.0,31.0,30.11,North,-999,-999.0,-999.0,31,-99.99,,,-99.99,,2013-05-13 14:22:00,
2013-05-13 09:31:00,57.0,30.0,30.11,North,-999,-999.0,-999.0,36,-99.99,,,-99.99,,2013-05-13 14:31:00,
2013-05-13 09:41:00,57.0,30.0,30.11,North,-999,-999.0,-999.0,36,-99.99,,,-99.99,,2013-05-13 14:41:00,
2013-05-13 09:52:00,57.0,30.0,30.11,North,-999,-999.0,-999.0,36,-99.99,,,-99.99,,2013-05-13 14:52:00,
2013-05-13 10:01:00,58.0,31.0,30.08,North,-999,-999.0,-999.0,36,-99.99,,,-99.99,,2013-05-13 15:01:00,
2013-05-13 10:11:00,58.0,31.0,30.08,North,-999,-999.0,-999.0,36,-99.99,,,-99.99,,2013-05-13 15:11:00,
2013-05-13 10:21:00,58.0,31.0,30.08,North,-999,-999.0,-999.0,36,-99.99,,,-99.99,,2013-05-13 15:21:00,
2013-05-13 10:31:00,59.0,31.0,30.08,North,-999,-999.0,-999.0,35,-99.99,,,-99.99,,2013-05-13 15:31:00,
2013-05-13 10:42:00,59.0,31.0,30.08,North,-999,-999.0,-999.0,35,-99.99,,,-99.99,,2013-05-13 15:42:00,
2013-05-13 10:53:00,59.0,31.0,30.08,North,-999,-999.0,-999.0,35,-99.99,,,-99.99,,2013-05-13 15:53:00,
2013-05-13 11:03:00,60.0,32.0,30.08,North,-999,-999.0,-999.0,35,-99.99,,,-99.99,,2013-05-13 16:03:00,
2013-05-13 11:11:00,60.0,32.0,30.08,North,-999,-999.0,-999.0,35,-99.99,,,-99.99,,2013-05-13 16:11:00,
2013-05-13 11:21:00,60.0,32.0,30.08,North,-999,-999.0,-999.0,35,-99.99,,,-99.99,,2013-05-13 16:21:00,
2013-05-13 11:33:00,61.0,33.0,30.08,North,-999,-999.0,-999.0,35,-99.99,,,-99.99,,2013-05-13 16:33:00,
2013-05-13 11:42:00,62.0,34.0,30.08,North,-999,-999.0,-999.0,35,-99.99,,,-99.99,,2013-05-13 16:42:00,
2013-05-13 11:53:00,62.0,34.0,30.08,North,-999,-999.0,-999.0,35,-99.99,,,-99.99,,2013-05-13 16:53:00,
2013-05-13 12:02:00,62.0,34.0,30.05,North,-999,-999.0,-999.0,35,-99.99,,,-99.99,,2013-05-13 17:02:00,
2013-05-13 12:12:00,62.0,34.0,30.05,North,-999,-999.0,-999.0,35,-99.99,,,-99.99,,2013-05-13 17:12:00,
2013-05-13 12:21:00,63.0,34.0,30.05,North,-999,-999.0,-999.0,34,-99.99,,,-99.99,,2013-05-13 17:21:00,
2013-05-13 12:32:00,64.0,35.0,30.05,North,-999,-999.0,-999.0,34,-99.99,,,-99.99,,2013-05-13 17:32:00,
2013-05-13 12:42:00,64.0,35.0,30.05,North,-999,-999.0,-999.0,34,-99.99,,,-99.99,,2013-05-13 17:42:00,
2013-05-13 12:54:00,64.0,34.0,30.05,North,-999,-999.0,-999.0,33,-99.99,,,-99.99,,2013-05-13 17:54:00,
2013-05-13 13:03:00,69.0,36.0,30.02,North,-999,-999.0,-999.0,30,-99.99,,,-99.99,,2013-05-13 18:03:00,
2013-05-13 13:12:00,69.0,36.0,30.02,North,-999,-999.0,-999.0,30,-99.99,,,-99.99,,2013-05-13 18:12:00,
2013-05-13 13:23:00,69.0,36.0,30.02,North,-999,-999.0,-999.0,30,-99.99,,,-99.99,,2013-05-13 18:23:00,
2013-05-13 13:32:00,71.0,38.0,29.99,North,-999,-999.0,-999.0,30,-99.99,,,-99.99,,2013-05-13 18:32:00,
2013-05-13 13:42:00,70.0,37.0,29.99,North,-999,-999.0,-999.0,30,-99.99,,,-99.99,,2013-05-13 18:42:00,
2013-05-13 13:52:00,70.0,37.0,29.99,North,-999,-999.0,-999.0,30,-99.99,,,-99.99,,2013-05-13 18:52:00,
2013-05-13 14:01:00,70.0,36.0,29.99,North,-999,-999.0,-999.0,29,-99.99,,,-99.99,,2013-05-13 19:01:00,
2013-05-13 14:11:00,70.0,36.0,29.99,North,-999,-999.0,-999.0,29,-99.99,,,-99.99,,2013-05-13 19:11:00,
2013-05-13 14:21:00,70.0,36.0,29.99,North,-999,-999.0,-999.0,29,-99.99,,,-99.99,,2013-05-13 19:21:00,
2013-05-13 14:32:00,70.0,35.0,29.96,North,-999,-999.0,-999.0,28,-99.99,,,-99.99,,2013-05-13 19:32:00,
2013-05-13 14:44:00,70.0,35.0,29.96,North,-999,-999.0,-999.0,28,-99.99,,,-99.99,,2013-05-13 19:44:00,
2013-05-13 14:53:00,70.0,35.0,29.96,North,-999,-999.0,-999.0,28,-99.99,,,-99.99,,2013-05-13 19:53:00,
2013-05-13 15:01:00,69.0,35.0,29.96,North,-999,-999.0,-999.0,29,-99.99,,,-99.99,,2013-05-13 20:01:00,
2013-05-13 15:11:00,69.0,35.0,29.96,North,-999,-999.0,-999.0,29,-99.99,,,-99.99,,2013-05-13 20:11:00,
2013-05-13 15:23:00,66.0,32.0,29.96,North,-999,-999.0,-999.0,28,-99.99,,,-99.99,,2013-05-13 20:23:00,
2013-05-13 15:33:00,66.0,34.0,29.96,North,-999,-999.0,-999.0,30,-99.99,,,-99.99,,2013-05-13 20:33:00,
2013-05-13 15:44:00,66.0,34.0,29.96,North,-999,-999.0,-999.0,30,-99.99,,,-99.99,,2013-05-13 20:44:00,
2013-05-13 15:53:00,64.0,34.0,29.96,North,-999,-999.0,-999.0,33,-99.99,,,-99.99,,2013-05-13 20:53:00,
2013-05-13 16:03:00,64.0,34.0,29.96,North,-999,-999.0,-999.0,33,-99.99,,,-99.99,,2013-05-13 21:03:00,
2013-05-13 16:14:00,64.0,34.0,29.96,North,-999,-999.0,-999.0,33,-99.99,,,-99.99,,2013-05-13 21:14:00,
2013-05-13 16:23:00,63.0,36.0,29.93,North,-999,-999.0,-999.0,36,-99.99,,,-99.99,,2013-05-13 21:23:00,
2013-05-13 16:33:00,63.0,36.0,29.93,North,-999,-999.0,-999.0,36,-99.99,,,-99.99,,2013-05-13 21:33:00,
2013-05-13 16:43:00,63.0,36.0,29.93,North,-999,-999.0,-999.0,36,-99.99,,,-99.99,,2013-05-13 21:43:00,
2013-05-13 16:53:00,63.0,36.0,29.90,North,-999,-999.0,-999.0,36,-99.99,,,-99.99,,2013-05-13 21:53:00,
2013-05-13 17:02:00,64.0,36.0,29.90,North,-999,-999.0,-999.0,35,-99.99,,,-99.99,,2013-05-13 22:02:00,
2013-05-13 17:12:00,64.0,36.0,29.90,North,-999,-999.0,-999.0,35,-99.99,,,-99.99,,2013-05-13 22:12:00,
2013-05-13 17:23:00,64.0,36.0,29.90,North,-999,-999.0,-999.0,35,-99.99,,,-99.99,,2013-05-13 22:23:00,
2013-05-13 17:32:00,65.0,37.0,29.87,North,-999,-999.0,-999.0,35,-99.99,,,-99.99,,2013-05-13 22:32:00,
2013-05-13 17:42:00,65.0,37.0,29.87,North,-999,-999.0,-999.0,35,-99.99,,,-99.99,,2013-05-13 22:42:00,
2013-05-13 17:52:00,65.0,37.0,29.87,North,-999,-999.0,-999.0,35,-99.99,,,-99.99,,2013-05-13 22:52:00,
2013-05-13 18:02:00,65.0,37.0,29.87,North,-999,-999.0,-999.0,35,-99.99,,,-99.99,,2013-05-13 23:02:00,
2013-05-13 18:12:00,65.0,37.0,29.87,North,-999,-999.0,-999.0,35,-99.99,,,-99.99,,2013-05-13 23:12:00,
2013-05-13 18:23:00,66.0,37.0,29.87,North,-999,-999.0,-999.0,34,-99.99,,,-99.99,,2013-05-13 23:23:00,
2013-05-13 18:33:00,67.0,37.0,29.87,North,-999,-999.0,-999.0,33,-99.99,,,-99.99,,2013-05-13 23:33:00,
2013-05-13 18:42:00,67.0,37.0,29.87,North,-999,-999.0,-999.0,33,-99.99,,,-99.99,,2013-05-13 23:42:00,
2013-05-13 18:54:00,65.0,36.0,29.84,North,-999,-999.0,-999.0,34,-99.99,,,-99.99,,2013-05-13 23:54:00,
2013-05-13 19:02:00,65.0,36.0,29.84,North,-999,-999.0,-999.0,34,-99.99,,,-99.99,,2013-05-14 00:02:00,
2013-05-13 19:12:00,65.0,36.0,29.84,North,-999,-999.0,-999.0,34,-99.99,,,-99.99,,2013-05-14 00:12:00,
2013-05-13 19:22:00,64.0,36.0,29.84,North,-999,-999.0,-999.0,35,-99.99,,,-99.99,,2013-05-14 00:22:00,
2013-05-13 19:31:00,63.0,35.0,29.84,North,-999,-999.0,-999.0,35,-99.99,,,-99.99,,2013-05-14 00:31:00,
2013-05-13 19:41:00,63.0,35.0,29.84,North,-999,-999.0,-999.0,35,-99.99,,,-99.99,,2013-05-14 00:41:00,
2013-05-13 19:51:00,64.0,36.0,29.84,North,-999,-999.0,-999.0,35,-99.99,,,-99.99,,2013-05-14 00:51:00,
2013-05-13 20:01:00,62.0,35.0,29.81,North,-999,-999.0,-999.0,36,-99.99,,,-99.99,,2013-05-14 01:01:00,
2013-05-13 20:11:00,62.0,35.0,29.81,North,-999,-999.0,-999.0,36,-99.99,,,-99.99,,2013-05-14 01:11:00,
2013-05-13 20:21:00,61.0,35.0,29.81,North,-999,-999.0,-999.0,37,-99.99,,,-99.99,,2013-05-14 01:21:00,
2013-05-13 20:32:00,59.0,33.0,29.81,North,-999,-999.0,-999.0,38,-99.99,,,-99.99,,2013-05-14 01:32:00,
2013-05-13 20:43:00,59.0,33.0,29.81,North,-999,-999.0,-999.0,38,-99.99,,,-99.99,,2013-05-14 01:43:00,
2013-05-13 20:53:00,59.0,33.0,29.81,North,-999,-999.0,-999.0,38,-99.99,,,-99.99,,2013-05-14 01:53:00,
2013-05-13 21:02:00,58.0,33.0,29.78,North,-999,-999.0,-999.0,39,-99.99,,,-99.99,,2013-05-14 02:02:00,
2013-05-13 21:11:00,58.0,33.0,29.78,North,-999,-999.0,-999.0,39,-99.99,,,-99.99,,2013-05-14 02:11:00,
2013-05-13 21:22:00,58.0,33.0,29.78,North,-999,-999.0,-999.0,39,-99.99,,,-99.99,,2013-05-14 02:22:00,
2013-05-13 21:32:00,58.0,34.0,29.78,North,-999,-999.0,-999.0,40,-99.99,,,-99.99,,2013-05-14 02:32:00,
2013-05-13 21:42:00,58.0,34.0,29.78,North,-999,-999.0,-999.0,40,-99.99,,,-99.99,,2013-05-14 02:42:00,
2013-05-13 21:52:00,57.0,34.0,29.78,North,-999,-999.0,-999.0,41,-99.99,,,-99.99,,2013-05-14 02:52:00,
2013-05-13 22:01:00,58.0,34.0,29.75,North,-999,-999.0,-999.0,41,-99.99,,,-99.99,,2013-05-14 03:01:00,
2013-05-13 22:11:00,58.0,34.0,29.75,North,-999,-999.0,-999.0,41,-99.99,,,-99.99,,2013-05-14 03:11:00,
2013-05-13 22:21:00,58.0,35.0,29.75,North,-999,-999.0,-999.0,42,-99.99,,,-99.99,,2013-05-14 03:21:00,
2013-05-13 22:33:00,58.0,36.0,29.75,North,-999,-999.0,-999.0,43,-99.99,,,-99.99,,2013-05-14 03:33:00,
2013-05-13 22:42:00,58.0,36.0,29.75,North,-999,-999.0,-999.0,43,-99.99,,,-99.99,,2013-05-14 03:42:00,
2013-05-13 22:52:00,58.0,36.0,29.75,North,-999,-999.0,-999.0,43,-99.99,,,-99.99,,2013-05-14 03:52:00,
2013-05-13 23:02:00,58.0,37.0,29.75,North,-999,-999.0,-999.0,45,-99.99,,,-99.99,,2013-05-14 04:02:00,
2013-05-13 23:13:00,58.0,37.0,29.75,North,-999,-999.0,-999.0,45,-99.99,,,-99.99,,2013-05-14 04:13:00,
2013-05-13 23:23:00,58.0,37.0,29.72,North,-999,-999.0,-999.0,45,-99.99,,,-99.99,,2013-05-14 04:23:00,
2013-05-13 23:32:00,58.0,37.0,29.72,North,-999,-999.0,-999.0,46,-99.99,,,-99.99,,2013-05-14 04:32:00,
2013-05-13 23:43:00,58.0,37.0,29.72,North,-999,-999.0,-999.0,46,-99.99,,,-99.99,,2013-05-14 04:43:00,
2013-05-13 23:52:00,58.0,37.0,29.72,North,-999,-999.0,-999.0,46,-99.99,,,-99.99,,2013-05-14 04:52:00,